Regional Weather Roundup
Issued by NWS

Home | Current Version | Previous Version | Graphics & Text | Print | Product List | Glossary On
Versions: 1 2 3 4 5 6 7 8 9 10 11 12 13 14 15 16 17 18 19 20 21 22 23 24 25 26 27 28 29 30 31 32 33 34 35 36 37 38 39 40 41 42 43 44 45 46 47 48 49 50
000
ASUS43 KTOP 041608
RWRKS

WEATHER ROUNDUP FOR KANSAS
NATIONAL WEATHER SERVICE GOODLAND KS
1100 AM CDT SAT JUL 04 2015

NOTE:  "FAIR" INDICATES FEW OR NO CLOUDS BELOW 12,000 FEET WITH NO
SIGNIFICANT WEATHER AND/OR OBSTRUCTIONS TO VISIBILITY.

KSZ001>006-013>018-027>032-041>047-041700-
NORTHWEST KANSAS

CITY           SKY/WX    TMP DP  RH WIND       PRES   REMARKS
GOODLAND       SUNNY     79  62  56 S18G24    29.97F
HAYS           SUNNY     81  63  54 S15G21    29.99F
HILL CITY      LGT RAIN  84  64  50 S16G23    29.97F
RUSSELL        SUNNY     79  66  64 S14       29.98F
$$

KSZ061>065-074>080-084>089-041700-
SOUTHWEST KANSAS

CITY           SKY/WX    TMP DP  RH WIND       PRES   REMARKS
DODGE CITY     SUNNY     79  61  53 S14       30.01S
ELKHART          N/A     80  59  48 S13         N/A
GARDEN CITY    SUNNY     78  64  61 S17G23    29.99F
GREAT BEND     SUNNY     79  66  65 SE14      30.00F
LIBERAL        SUNNY     81  63  54 S12       30.02F
PRATT          SUNNY     81  61  50 SE9       30.01F
$$

KSZ066>073-081>083-090>101-041700-
SOUTHEAST KANSAS

CITY           SKY/WX    TMP DP  RH WIND       PRES   REMARKS
CHANUTE        SUNNY     79  66  64 SE7       30.01F
COFFEYVILLE    SUNNY     82  68  62 E5        29.99F
HUTCHINSON     MOSUNNY   81  65  58 S10       30.01F
MEDICINE LODGE   N/A     81  65  58 SE8       29.99F
NEWTON         MOSUNNY   79  63  57 SE7       30.04S
PARSONS        MOSUNNY   78  67  68 S3        30.02S
WICHITA INTL   MOSUNNY   80  65  59 SE9       30.00F
WICHITA JABRA  MOSUNNY   80  65  59 SE7       30.00F
WICHITA MCCONL SUNNY     80  64  59 E6        30.01S
WINFIELD       MOSUNNY   81  64  56 VRB6      30.01S
$$

KSZ007>012-019>026-033>040-048>060-102>105-041700-
NORTHEAST KANSAS

CITY           SKY/WX    TMP DP  RH WIND       PRES   REMARKS
CONCORDIA      PTSUNNY   76  62  62 S10       30.00F
EMPORIA        SUNNY     78  61  55 S5        30.02F
LAWRENCE       SUNNY     76  64  66 S5        30.03S
MANHATTAN      SUNNY     79  60  52 SE7       30.00F
MARYSVILLE     SUNNY     77  63  61 S8        30.01S
OLATHE IND     SUNNY     77  61  57 SE6       30.03F
OLATHE EXE     SUNNY     74  62  66 S6        30.03S
SALINA         MOSUNNY   82  64  54 SE8       30.00F
TOPEKA BILLARD SUNNY     77  62  59 S7        30.02F
TOPEKA FORBES  SUNNY     78  62  57 SE8       30.02F
$$


USA.gov is the U.S. government's official web portal to all federal, state and local government web resources and services.